Weather History for TGPY - April, 2013

Change the Weather History Date:

Tuesday, April 23, 2013

  Actual Average Record
Temperature  
Mean Temperature 79 °F -  
Max Temperature 86 °F 85 °F 87 °F (1998)
Min Temperature 72 °F 77 °F 72 °F (2013)
Cooling Degree Days 14    
Growing Degree Days 29 (Base 50)    
Moisture  
Dew Point 75 °F    
Average Humidity 83    
Maximum Humidity 96    
Minimum Humidity 67    
Precipitation  
Precipitation 0.20 in - - ()
Sea Level Pressure  
Sea Level Pressure 29.92 in    
Wind  
Wind Speed 13 mph ()    
Max Wind Speed 23 mph    
Max Gust Speed -    
Visibility 6.5 miles    
Events Rain    
Averages and records for this station are not official NWS values.
T = Trace of Precipitation, MM = Missing Value Source: Averaged Metar Reports

Daily Weather History Graph

Daily Weather History Graph

Search for Another Location

Airport or City:

Trip Planner

Search our weather history database for the weather conditions in past years. The results will help you decide how hot, cold, wet, or windy it might be!

Date:

Astronomy

Apr. 23, 2013 Rise Set
Actual Time 5:51 AM AST 6:19 PM AST
Civil Twilight 5:29 AM AST 6:41 PM AST
Nautical Twilight 5:03 AM AST 7:07 PM AST
Astronomical Twilight 4:38 AM AST 7:32 PM AST
Moon 4:27 PM AST (4/23) 3:52 AM AST (4/23)
Length of Visible Light 13h 12m
Length of Day
12h 28m
Waxing Gibbous, 94% of the Moon is Illuminated
Apr 23
Waxing Gibbous
Apr 25
Full
May 2
Last Quarter
May 9
New
May 18
First Quarter

Hourly Weather History & Observations

Time (AST) Temp. Heat Index Dew Point Humidity Pressure Visibility Wind Dir Wind Speed Gust Speed Precip Events Conditions
12:00 AM 77.0 °F - 73.4 °F 89% 29.95 in 6.2 mi East 9.2 mph - N/A   Mostly Cloudy
1:00 AM 75.2 °F - 73.4 °F 94% 29.92 in 5.0 mi East 16.1 mph - N/A Rain Rain Showers
2:00 AM 74 °F - 73 °F 96% 29.92 in 4 mi East 11.5 mph - - Rain Light Rain Showers
2:00 AM 75.2 °F - 73.4 °F 94% 29.92 in 3.7 mi East 11.5 mph - N/A Rain Rain Showers
3:00 AM 75.2 °F - 73.4 °F 94% 29.89 in 6.2 mi East 11.5 mph - N/A   Mostly Cloudy
4:00 AM 77.0 °F - 73.4 °F 89% 29.89 in 4.3 mi East 16.1 mph - N/A Rain Rain Showers
5:00 AM 75 °F - 74 °F 94% 29.90 in 6 mi East 15.0 mph - - Rain Light Rain Showers
5:00 AM 75.2 °F - 73.4 °F 94% 29.89 in 6.2 mi East 15.0 mph - N/A Rain Light Rain Showers
6:00 AM 75.2 °F - 73.4 °F 94% 29.89 in 5.6 mi ENE 9.2 mph - N/A   Mostly Cloudy
8:00 AM 79 °F - 75 °F 83% 29.95 in 4 mi ESE 13.8 mph - -   Mostly Cloudy
8:00 AM 78.8 °F - 75.2 °F 89% 29.95 in 4.3 mi ESE 13.8 mph - N/A   Mostly Cloudy
9:00 AM 82.4 °F 89.5 °F 75.2 °F 79% 29.95 in 6.2 mi East 13.8 mph - N/A   Mostly Cloudy
10:00 AM 82.4 °F 89.5 °F 75.2 °F 79% 29.95 in 6.2 mi East 12.7 mph - N/A   Mostly Cloudy
11:00 AM 84 °F - 76 °F 70% 29.96 in 11 mi East 19.6 mph - -   Widespread Dust
11:00 AM 84.2 °F 92.3 °F 75.2 °F 74% 29.95 in 6.2 mi East 19.6 mph - N/A   Mostly Cloudy
12:00 PM 84 °F - 76 °F 70% 29.96 in 11 mi ESE 19.6 mph - -   Widespread Dust
12:00 PM 84.2 °F 92.3 °F 75.2 °F 74% 29.92 in 6.2 mi ESE 18.4 mph - N/A   Mostly Cloudy
1:00 PM 84.2 °F 92.3 °F 75.2 °F 74% 29.92 in 6.2 mi ESE 20.7 mph - N/A   Mostly Cloudy
2:00 PM 84 °F - 75 °F 67% 29.90 in 9 mi ESE 18.4 mph - -   Mostly Cloudy
2:00 PM 84.2 °F 94.1 °F 77.0 °F 79% 29.89 in 6.2 mi ESE 18.4 mph - N/A   Mostly Cloudy
3:00 PM 82.4 °F 89.5 °F 75.2 °F 79% 29.89 in 6.2 mi ESE 23.0 mph - N/A Rain Light Rain Showers
4:00 PM 82.4 °F 89.5 °F 75.2 °F 79% 29.86 in 6.2 mi ESE 19.6 mph - N/A   Mostly Cloudy
5:00 PM 81 °F - 76 °F 80% 29.88 in 9 mi ESE 20.7 mph - - Rain Light Rain Showers
5:00 PM 80.6 °F 86.2 °F 75.2 °F 84% 29.86 in 6.2 mi ESE 20.7 mph - N/A Rain Light Rain Showers
6:00 PM 80.6 °F 86.2 °F 75.2 °F 84% 29.86 in 6.2 mi ESE 17.3 mph - N/A   Scattered Clouds
7:00 PM 80.6 °F 86.2 °F 75.2 °F 84% 29.89 in 6.2 mi ESE 13.8 mph - N/A   Mostly Cloudy
8:00 PM 81 °F - 74 °F 75% 29.93 in 11 mi ESE 13.8 mph - -   Widespread Dust
8:00 PM 80.6 °F 86.2 °F 75.2 °F 84% 29.92 in 6.2 mi ESE 13.8 mph - N/A   Mostly Cloudy
9:00 PM 80.6 °F 86.2 °F 75.2 °F 84% 29.95 in 6.2 mi ESE 13.8 mph - N/A   Mostly Cloudy
11:00 PM 79 °F - 75 °F 83% 29.97 in 7 mi East 20.7 mph - - Rain Light Rain Showers
11:00 PM 78.8 °F - 75.2 °F 89% 29.98 in 6.2 mi East 20.7 mph - N/A Rain Light Rain Showers